Zurück zum Katalog

COSMOS 1823 DEB

AktivLEO
NORAD 39805·DEBRIS·🇷🇺 Russia

Gestartet Feb 20, 1987 von Plesetsk Cosmodrome

Loading…

Nächste Überflüge (nächste 24 Stunden)

TLE

AlterndSource: Space-Track

Epoche: Sep 9, 2026, 10:28 UTC

1 39805U 87020ED  26252.43639380 -.00000015  00000-0  17667-4 0  9993
2 39805  73.5942 236.8863 0021327 103.8017  51.6140 12.42658610556624

Verfolge COSMOS 1823 DEB in Echtzeit mit AllMySat

Download on the App Store